Location: Cardiff
(53.7833°N, 113.6000°W)
Time: 15:52:53
(UTC+00:00)

RS-15 - Pass Details

Date: 06 December 2023
Orbit: 1893 x 2151 km, 64.8° (Epoch: 27 February)

Event Time Altitude Azimuth Distance (km) Brightness Sun altitude
Exits shadow 08:27:50 32° 52° (NE) 2,995 9.1 -56.5°
Drops below altitude 10° 08:33:36 10° 73° (ENE) 4,376 10.1 -56.1°
Sets 08:37:04 0° 80° (E) 5,347 10.6 -55.9°
